Location: 22
(39.7117°N, 89.5929°W)
Time: 14:53:36
(UTC-05:00)

Tiros 1 despin weight - Pass Details

Date: 15 August 2024
Orbit: 573 x 617 km, 48.2° (Epoch: 17 September)

Event Time Altitude Azimuth Distance (km) Brightness Sun altitude
Rises 22:06:20 0° 297° (WNW) 2,784 ? -22.8°
Reaches altitude 10° 22:08:40 10° 292° (WNW) 1,879 ? -23.1°
Enters shadow 22:12:34 47° 229° (SW) 760 ? -23.6°
